Temp
18 17 17 17 17 17 16 16 16 16 16 15 15 14 13 13 13 13 12 12 12 12
18 18 18 18 17 17 16 16 16 16 15 15 14 14 13 13 12 12 12 12 12 12
19 19 19 18 18 18 17 16 16 15 15 15 14 13 13 12 12 12 12 11 11 11
20 20 19 19 19 18 18 17 16 16 15 14 14 14 13 13 12 12 12 11 11 11
21 20 20 20 20 19 18 18 17 16 15 15 14 14 13 13 12 12 12 12 12 12
21 20 20 20 20 19 18 18 17 16 16 15 15 14 14 13 13 12 12 12 12 12
21 21 21 20 20 19 19 18 17 16 16 15 15 14 14 13 13 13 12 12 12 12
21 21 20 20 20 19 18 17 17 16 16 15 15 14 14 13 13 12 12 12 12 11
21 21 20 20 19 18 18 17 16 16 16 15 15 14 14 13 13 12 11 11 11 11
21 21 20 20 19 18 17 17 16 15 15 15 14 14 13 13 12 11 11 10 10 10
21 20 20 19 18 17 17 16 15 15 14 14 14 13 12 12 11 10 10 10 10 10
21 20 19 18 18 17 16 15 15 14 14 13 13 12 12 11 10 10 10 10 10 11
21 20 19 18 17 16 15 15 14 13 13 13 12 12 11 10 9 9 9 9 10 10
20 19 18 17 16 15 14 14 13 13 13 13 12 12 11 10 9 8 8 8 9 9
Height
817 818 819 819 819 818 818 818 819 819 817 817 817 817 817 818 818 818 817 817 817 817
812 813 813 814 814 813 814 814 814 814 814 813 813 813 813 812 811 812 811 811 812 810
807 809 810 811 810 810 809 809 809 809 808 808 808 809 809 806 805 805 805 805 805 803
803 805 806 807 806 806 806 805 805 804 803 803 803 802 801 801 800 799 799 799 799 796
799 801 802 803 803 803 802 802 801 800 800 799 798 798 796 795 794 795 794 793 790 788
795 797 798 800 800 800 799 799 798 797 795 794 794 793 792 791 789 788 787 786 785 783
791 793 795 796 796 796 796 795 793 791 791 790 790 788 787 786 785 784 783 782 780 778
787 790 792 792 792 792 791 790 789 788 786 786 785 784 784 783 781 779 779 777 775 773
780 783 786 787 788 787 786 786 785 784 783 782 781 780 780 779 778 776 773 771 768 768
774 777 779 781 782 782 781 782 781 780 779 778 778 777 776 776 774 771 769 767 764 761
767 770 773 775 776 776 777 777 777 776 776 775 774 774 773 771 769 767 764 763 762 759
759 762 765 768 770 771 772 772 772 773 773 772 770 769 768 766 764 762 760 758 757 756
751 755 758 762 764 766 766 767 768 768 769 767 766 765 763 762 761 759 756 755 753 750
745 748 752 755 758 760 761 762 764 764 763 763 762 761 760 760 758 756 754 752 751 751
Wind_Speed
26 26 26 26 26 26 25 24 21 21 22 24 25 25 25 27 30 30 31 32 34 33
23 24 24 21 20 21 21 22 21 21 23 22 23 24 23 26 29 28 30 32 32 33
21 20 18 16 16 16 17 17 18 19 20 21 22 23 23 26 26 27 29 29 30 33
19 17 14 13 13 13 13 14 16 17 18 19 19 19 22 24 25 26 27 28 30 32
18 16 14 13 10 10 13 14 16 16 16 17 18 20 22 24 24 24 26 29 31 34
19 17 14 10 9 11 12 13 15 16 17 18 19 19 20 22 24 25 27 29 30 32
21 18 13 10 11 12 12 14 15 14 15 16 18 20 19 20 22 24 26 28 28 30
20 16 14 12 11 11 13 14 14 14 14 15 16 18 19 18 20 22 24 27 28 30
21 18 15 12 11 11 12 13 13 13 15 17 17 18 16 18 21 23 25 28 27 26
23 20 16 13 12 12 11 12 13 14 15 17 16 15 16 17 19 21 23 25 25 25
25 20 16 13 13 11 10 12 14 15 15 16 17 15 15 16 18 20 20 20 23 25
27 22 17 15 12 10 12 13 14 14 15 15 16 13 14 15 17 16 17 17 17 18
28 23 18 14 12 11 11 13 12 14 14 14 14 12 14 15 15 14 15 15 15 13
27 22 16 12 12 11 11 10 12 14 15 13 12 11 11 13 13 11 14 15 15 16
Wind_Direction
237 242 250 257 263 266 266 268 270 270 268 267 268 267 262 259 257 255 254 253 251 253
235 241 250 259 264 269 273 274 273 266 262 263 266 268 266 260 259 257 257 255 256 256
232 240 248 255 262 272 281 280 280 277 274 270 266 266 265 263 261 259 258 258 259 257
223 226 234 248 266 280 290 290 285 283 282 280 279 276 269 267 266 262 261 260 259 259
212 215 222 237 262 287 295 293 292 291 286 280 275 276 271 269 267 264 264 264 261 262
207 212 220 236 260 271 284 289 286 284 280 278 279 279 275 272 271 268 267 268 268 269
207 212 221 237 260 284 297 298 293 287 282 281 280 281 281 277 276 274 274 274 274 273
207 213 225 244 272 292 297 296 295 293 287 285 283 285 289 287 283 281 284 284 283 280
206 212 226 243 269 285 295 296 296 295 293 292 293 298 299 289 288 290 289 290 293 294
205 211 221 239 260 277 285 291 291 290 290 290 293 299 298 297 297 299 301 300 300 300
206 209 217 233 253 265 273 279 285 288 290 294 302 309 304 305 305 307 309 310 307 302
205 207 214 230 247 255 263 274 281 286 290 298 304 309 306 303 309 314 313 313 312 312
206 207 213 229 239 252 262 275 283 289 294 297 301 310 305 312 322 320 322 320 319 323
204 204 213 221 233 249 262 272 279 286 293 299 306 304 303 318 326 322 320 325 327 330